Regional Weather Roundup
Issued by NWS Newport/Morehead, NC

Current Version | Previous Version | Graphics & Text | Print | Product List | Glossary On
Versions: 1 2 3 4 5 6 7 8 9 10 11 12 13 14 15 16 17 18 19 20 21 22 23 24 25 26 27 28 29 30 31 32 33 34 35 36 37 38 39 40 41 42 43 44 45 46 47 48 49 50
000 ASUS42 KMHX 201325 RWRMHX WEATHER ROUNDUP FOR EASTERN NORTH CAROLINA NATIONAL WEATHER SERVICE NEWPORT/MOREHEAD CITY NC 900 AM EDT THU JUL 20 2017 NOTE: "FAIR" INDICATES FEW OR NO CLOUDS BELOW 12,000 FEET WITH NO SIGNIFICANT WEATHER AND/OR OBSTRUCTIONS TO VISIBILITY NCZ015>017-031-032-045>047-102-103-201400- NORTH COAST CITY SKY/WX TMP DP RH WIND PRES REMARKS EDENTON SUNNY 83 74 74 CALM 30.07S ELIZABETH CITY SUNNY 81 76 84 SW3 30.06S KITTY HAWK MOSUNNY 81 74 79 CALM 30.06R MANTEO SUNNY 79 74 85 CALM 30.08R $$ NCZ045>047-081-094-103-104-201400- CENTRAL COAST CITY SKY/WX TMP DP RH WIND PRES REMARKS FRISCO MOSUNNY 82 73 74 CALM 30.07S $$ NCZ095-097-098-100-101-201400- SOUTHERN COAST CITY SKY/WX TMP DP RH WIND PRES REMARKS BEAUFORT SUNNY 81 74 79 NW6 30.07S CEDAR ISLAND NOT AVBL JACKSONVILLE MOSUNNY 79 75 87 W5 30.07S PINEY ISLAND MOSUNNY N/A N/A N/A NW7 30.07S WILMINGTON SUNNY 79 71 76 NW6 30.08R $$ NCZ011>013-027>030-043-044-078>080-089-090>093-098-201400- COASTAL PLAIN CITY SKY/WX TMP DP RH WIND PRES REMARKS AHOSKIE N/A 79 74 84 CALM 30.06S CLINTON SUNNY 79 74 84 CALM 30.08S ELIZABETHTOWN NOT AVBL GOLDSBORO SUNNY 78 78 98 CALM 30.06S GREENVILLE SUNNY 81 72 74 CALM 30.08S HAVELOCK SUNNY 80 73 79 NW3 30.08S KENANSVILLE MOSUNNY 81 72 74 NW3 30.08S KINSTON SUNNY 79 72 78 CALM 30.08S NEW BERN SUNNY 79 73 82 VRB3 30.09S RICHLANDS SUNNY 79 74 84 CALM 30.08S ROCKY MOUNT SUNNY 79 74 84 SW3 30.07S WASHINGTON SUNNY 80 72 75 SW3 30.07S WHITEVILLE SUNNY 79 71 76 CALM 30.08S $$ AMZ130-135-150-152-154-156-158-170-250-252-270-ANZ085-086-088-633-658-670-201400- MARINE OBSERVATIONS STATION/POSITION TIME TEMP WIND PRES WAVE SWELL AIR SEA DIR/SP/G HT/PER HT/PER (UTC) (F) (DEG/KT/KT) (MB) (FT/S) (FT/S) CHESAPEAKE LIGHT NOT AVBL 64 E VA BEACH 1250 79 80 250/ 4/ 6 1018.5 2/ 8 2/ 8 DUCK 1300 78 61 190/ 3/ 4 1017.7 2 E DUCK 1300 70 N/A 2/15 2/15 OREGON INLET 1300 79 80 240/ 5/ 6 1018.1 13E OREGON INLT 1218 77 N/A 2/15 2/15 HATTERAS CG 1300 81 79 330/ 4/ 5 1018.2 DIAMOND BUOY 1250 81 84 350/ 6/ 8 1018.2 2/ 6 2/ 6 CAPE LOOKOUT 1300 81 300/ 2/ 3 1018.0 BEAUFORT LAB 1300 80 79 350/ 5/ 7 1017.8 30 SE NEW RVR IN 1308 79 82 300/ 4/ 6 1018.5 30 SE NEW RVR IN 1313 82 N/A 2/ 7 2/14 27 SE WRIGHTSVLE 1308 79 80 320/ 8/ 12 1018.5 5 SE WRIGHTSVLE 1308 78 81 310/ 6/ 8 1018.5 225 S CAPE HAT 1250 81 83 200/ 4/ 6 1019.7 4/ 5 3/ 5 41 SE CHARLESTON 1310 81 83 340/ 8/ 10 1019.0 $$

USA.gov is the U.S. government's official web portal to all federal, state and local government web resources and services.